Weather History for KMZH - June, 2013

Change the Weather History Date:

Friday, June 21, 2013

  Actual Average Record
Temperature  
Mean Temperature 61 °F -  
Max Temperature 71 °F 76 °F 89 °F (1988)
Min Temperature 51 °F 48 °F 35 °F (1963)
Degree Days  
Heating Degree Days 4    
Growing Degree Days 11 (Base 50)    
Moisture  
Dew Point 57 °F    
Average Humidity 87    
Maximum Humidity 100    
Minimum Humidity 69    
Precipitation  
Precipitation 0.01 in - - ()
Sea Level Pressure  
Sea Level Pressure 29.95 in    
Wind  
Wind Speed 7 mph (ENE)    
Max Wind Speed 15 mph    
Max Gust Speed 21 mph    
Visibility 7 miles    
Events Rain , Thunderstorm    
Averages and records for this station are not official NWS values.
T = Trace of Precipitation, MM = Missing Value Source: NWS Daily Summary

Daily Weather History Graph

Daily Weather History Graph

Search for Another Location

Airport or City:

Trip Planner

Search our weather history database for the weather conditions in past years. The results will help you decide how hot, cold, wet, or windy it might be!

Date:

Astronomy

Jun. 21, 2013 Rise Set
Actual Time 5:18 AM CDT 9:07 PM CDT
Civil Twilight 4:39 AM CDT 9:46 PM CDT
Nautical Twilight 3:46 AM CDT 10:39 PM CDT
Astronomical Twilight 2:30 AM CDT 11:56 PM CDT
Moon 7:14 PM CDT (6/21) 3:40 AM CDT (6/21)
Length of Visible Light 17h 07m
Length of Day
15h 48m
Waxing Gibbous, 95% of the Moon is Illuminated
Jun 21
Waxing Gibbous
Jun 23
Full
Jun 29
Last Quarter
Jul 8
New
Jul 15
First Quarter

Hourly Weather History & Observations

Time (CDT) Temp. Dew Point Humidity Pressure Visibility Wind Dir Wind Speed Gust Speed Precip Events Conditions
12:08 AM 51.8 °F 51.8 °F 100% 29.95 in 0.8 mi NE 5.8 mph - N/A   Overcast
12:28 AM 51.8 °F 51.8 °F 100% 29.93 in 1.0 mi NE 6.9 mph - N/A   Overcast
12:48 AM 51.8 °F 51.8 °F 100% 29.92 in 1.2 mi ENE 6.9 mph - N/A   Overcast
1:08 AM 51.8 °F 51.8 °F 100% 29.94 in 2.5 mi ENE 4.6 mph - N/A   Overcast
1:28 AM 51.8 °F 51.8 °F 100% 29.90 in 2.5 mi ENE 4.6 mph - N/A Rain , Thunderstorm Light Thunderstorms and Rain
1:48 AM 53.6 °F 51.8 °F 94% 29.90 in 4.0 mi NE 4.6 mph - N/A Rain , Thunderstorm Light Thunderstorms and Rain
2:08 AM 53.6 °F 51.8 °F 94% 29.91 in 5.0 mi NE 3.5 mph - 0.01 in Rain , Thunderstorm Light Thunderstorms and Rain
2:28 AM 55.4 °F 53.6 °F 94% 29.94 in 4.0 mi Calm Calm - 0.01 in Rain , Thunderstorm Heavy Thunderstorms and Rain
2:48 AM 55.4 °F 53.6 °F 94% 29.90 in 1.8 mi NE 9.2 mph - 0.01 in Rain , Thunderstorm Heavy Thunderstorms and Rain
3:08 AM 55.4 °F 55.4 °F 100% 29.88 in 4.0 mi NE 15.0 mph 20.7 mph N/A Rain , Thunderstorm Heavy Thunderstorms and Rain
3:28 AM 55.4 °F 53.6 °F 94% 29.87 in 5.0 mi NNE 15.0 mph - N/A Rain , Thunderstorm Heavy Thunderstorms and Rain
3:48 AM 55.4 °F 53.6 °F 94% 29.89 in 5.0 mi NNE 13.8 mph 17.3 mph N/A Rain , Thunderstorm Rain
4:08 AM 55.4 °F 55.4 °F 100% 29.92 in 2.0 mi NNE 4.6 mph - N/A Rain , Thunderstorm Heavy Thunderstorms and Rain
4:28 AM 59.0 °F 57.2 °F 94% 29.92 in 1.8 mi North 9.2 mph 16.1 mph N/A Rain , Thunderstorm Heavy Thunderstorms and Rain
4:48 AM 59.0 °F 59.0 °F 100% 29.92 in 2.5 mi North 10.4 mph - N/A Rain , Thunderstorm Heavy Thunderstorms and Rain
5:08 AM 60.8 °F 59.0 °F 94% 29.94 in 3.0 mi North 9.2 mph 16.1 mph N/A Rain , Thunderstorm Heavy Thunderstorms and Rain
5:28 AM 60.8 °F 59.0 °F 94% 29.95 in 3.0 mi North 10.4 mph 16.1 mph N/A Rain , Thunderstorm Heavy Thunderstorms and Rain
5:48 AM 60.8 °F 59.0 °F 94% 29.93 in 5.0 mi North 11.5 mph 17.3 mph N/A Rain Heavy Rain
6:08 AM 60.8 °F 59.0 °F 94% 29.91 in 5.0 mi North 9.2 mph - N/A Rain Heavy Rain
6:28 AM 60.8 °F 59.0 °F 94% 29.88 in 5.0 mi ENE 11.5 mph 16.1 mph N/A Rain Rain
10:59 AM - - N/A% 29.90 in - NE 8.1 mph - N/A   Unknown
11:08 AM 69.8 °F 60.8 °F 73% 29.91 in 10.0 mi NNE 8.1 mph - N/A   Unknown
11:28 AM 69.8 °F 60.8 °F 73% 29.93 in 10.0 mi ENE 5.8 mph - N/A   Overcast
11:48 AM 69.8 °F 60.8 °F 73% 29.93 in 10.0 mi NE 5.8 mph - N/A   Overcast
12:08 PM 68.0 °F 60.8 °F 78% 29.94 in 10.0 mi ENE 5.8 mph - N/A   Overcast
12:28 PM 69.8 °F 60.8 °F 73% 29.94 in 10.0 mi ENE 3.5 mph - N/A   Overcast
12:48 PM 69.8 °F 62.6 °F 78% 29.93 in 10.0 mi East 5.8 mph - N/A   Overcast
1:08 PM 71.6 °F 62.6 °F 73% 29.93 in 10.0 mi ENE 5.8 mph - N/A   Scattered Clouds
1:28 PM 71.6 °F 62.6 °F 73% 29.93 in 10.0 mi East 6.9 mph - N/A   Mostly Cloudy
1:48 PM 71.6 °F 62.6 °F 73% 29.94 in 10.0 mi East 3.5 mph - N/A   Mostly Cloudy
2:08 PM 71.6 °F 62.6 °F 73% 29.95 in 10.0 mi NE 4.6 mph - N/A   Mostly Cloudy
2:28 PM 71.6 °F 60.8 °F 69% 29.95 in 10.0 mi ENE 6.9 mph - N/A   Mostly Cloudy
2:48 PM 71.6 °F 60.8 °F 69% 29.96 in 10.0 mi ESE 6.9 mph - N/A   Mostly Cloudy
3:08 PM 69.8 °F 60.8 °F 73% 29.96 in 10.0 mi ESE 9.2 mph - N/A   Scattered Clouds
3:28 PM 66.2 °F 59.0 °F 78% 29.97 in 10.0 mi East 9.2 mph - N/A   Mostly Cloudy
3:48 PM 64.4 °F 59.0 °F 83% 29.98 in 10.0 mi ENE 4.6 mph - N/A   Overcast
4:08 PM 64.4 °F 59.0 °F 83% 29.97 in 10.0 mi East 8.1 mph - N/A   Mostly Cloudy
4:28 PM 66.2 °F 59.0 °F 78% 29.96 in 10.0 mi East 6.9 mph - N/A   Mostly Cloudy
4:48 PM 66.2 °F 60.8 °F 83% 29.97 in 10.0 mi NE 5.8 mph - N/A   Overcast
5:08 PM 68.0 °F 60.8 °F 78% 29.99 in 10.0 mi NE 8.1 mph - N/A   Overcast
5:28 PM 66.2 °F 59.0 °F 78% 30.00 in 10.0 mi East 6.9 mph - N/A   Overcast
5:48 PM 64.4 °F 59.0 °F 83% 30.01 in 10.0 mi ENE 5.8 mph - N/A   Overcast
6:08 PM 64.4 °F 59.0 °F 83% 29.99 in 10.0 mi ENE 5.8 mph - N/A   Overcast
6:28 PM 62.6 °F 59.0 °F 88% 30.01 in 10.0 mi ENE 3.5 mph - N/A   Overcast
6:48 PM 62.6 °F 59.0 °F 88% 30.03 in 10.0 mi Calm Calm - N/A   Overcast
7:08 PM 62.6 °F 59.0 °F 88% 30.04 in 10.0 mi ENE 3.5 mph - N/A   Overcast
7:28 PM 60.8 °F 57.2 °F 88% 30.03 in 10.0 mi NE 4.6 mph - N/A   Overcast
7:48 PM 60.8 °F 55.4 °F 82% 30.06 in 10.0 mi East 4.6 mph - N/A   Overcast
8:08 PM 59.0 °F 55.4 °F 88% 30.10 in 10.0 mi SSW 4.6 mph - N/A   Overcast
8:28 PM 59.0 °F 55.4 °F 88% 30.11 in 10.0 mi Calm Calm - N/A   Overcast
8:48 PM 59.0 °F 55.4 °F 88% 30.08 in 10.0 mi NE 3.5 mph - N/A   Mostly Cloudy
9:08 PM 59.0 °F 55.4 °F 88% 30.04 in 10.0 mi ENE 4.6 mph - N/A   Scattered Clouds
9:28 PM 59.0 °F 55.4 °F 88% 29.99 in 10.0 mi ENE 10.4 mph - N/A   Clear
9:48 PM 59.0 °F 55.4 °F 88% 29.96 in 10.0 mi ENE 6.9 mph - N/A Rain Light Rain
10:08 PM 59.0 °F 55.4 °F 88% 29.96 in 7.0 mi ESE 8.1 mph - N/A   Mostly Cloudy
10:28 PM 59.0 °F 55.4 °F 88% 29.95 in 7.0 mi East 10.4 mph 18.4 mph N/A   Overcast
10:48 PM 59.0 °F 55.4 °F 88% 29.90 in 7.0 mi East 9.2 mph 18.4 mph N/A   Overcast
11:08 PM 57.2 °F 55.4 °F 94% 29.92 in 7.0 mi NE 6.9 mph - N/A   Overcast
11:28 PM 57.2 °F 55.4 °F 94% 29.93 in 5.0 mi NNE 6.9 mph - N/A   Overcast
11:48 PM 57.2 °F 55.4 °F 94% 29.94 in 7.0 mi NE 4.6 mph - N/A Thunderstorm Overcast